{"data":{"norad_id":67081,"epoch":"2026-05-25T03:37:16.635936Z","epoch_age_seconds":62172,"freshness":"FRESH","line1":"1 67081U 25298G   26145.15088699  .00003850  00000+0  33017-3 0  9994","line2":"2 67081  70.0015 181.5474 0004316 263.6196  96.4472 14.98338050 24676","mean_motion":14.9833805,"eccentricity":0.0004316,"inclination_deg":70.0015,"raan_deg":181.5474,"arg_perigee_deg":263.6196,"mean_anomaly_deg":96.4472,"bstar":0.00033017,"rev_number":2467,"period_min":96.10648277937,"perigee_km":569.03130458737,"apogee_km":575.03068960246,"semimajor_km":6950.1679970949,"source":"CELESTRAK","updated_at":"2026-05-25T13:38:21.465660Z"}}